Auburn, IN

3:17 PM EDT on October 18, 2019 (GMT -0400)
Auburn

Weather History for KGWB - September, 2019

Change the Weather History Date:

Sunday, September 22, 2019

  Actual Average (KFWA) Record (KFWA)
Temperature  
Mean Temperature 76 °F -  
Max Temperature 84 °F 71 °F 92 °F (2017)
Min Temperature 69 °F 49 °F 34 °F (1995)
Cooling Degree Days 12    
Growing Degree Days 26 (Base 50)    
Moisture  
Dew Point 60 °F    
Average Humidity 57    
Maximum Humidity 73    
Minimum Humidity 42    
Precipitation  
Precipitation 0.00 in - - ()
Sea Level Pressure  
Sea Level Pressure 30.00 in    
Wind  
Wind Speed 6 mph (SSW)    
Max Wind Speed 17 mph    
Max Gust Speed 28 mph    
Visibility 10 miles    
Events Rain    
Averages and records for this station are not official NWS values.
T = Trace of Precipitation, MM = Missing Value Source: NWS Daily Summary

Daily Weather History Graph

Daily Weather History Graph

Search for Another Location

Airport or City:

Astronomy

Sep. 22, 2019 Rise Set
Actual Time 7:27 AM EDT 7:37 PM EDT
Civil Twilight 6:59 AM EDT 8:05 PM EDT
Nautical Twilight 6:27 AM EDT 8:37 PM EDT
Astronomical Twilight 5:54 AM EDT 9:10 PM EDT
Moon 12:12 AM EDT (9/22) 3:36 PM EDT (9/22)
Length of Visible Light 13h 05m
Length of Day
12h 10m
Last Quarter, 44% of the Moon is Illuminated
Sep 22
Last Quarter
Sep 28
New
Oct 5
First Quarter
Oct 13
Full
Oct 21
Last Quarter

Hourly Weather History & Observations

Time (EDT) Temp. Heat Index Dew Point Humidity Pressure Visibility Wind Dir Wind Speed Gust Speed Precip Events Conditions
12:15 AM 73.4 °F - 62.6 °F 69% 30.10 in 10.0 mi Calm Calm - N/A   Scattered Clouds
12:35 AM 73.4 °F - 62.6 °F 69% 30.10 in 10.0 mi SSW 3.5 mph - N/A   Scattered Clouds
12:55 AM 73.4 °F - 62.6 °F 69% 30.09 in 10.0 mi SSW 3.5 mph - N/A   Clear
1:15 AM 73.4 °F - 60.8 °F 65% 30.08 in 10.0 mi SSW 3.5 mph - N/A   Clear
1:40 AM 73.4 °F - 60.8 °F 65% 30.08 in 10.0 mi SSW 4.6 mph - N/A   Scattered Clouds
1:55 AM 73.4 °F - 60.8 °F 65% 30.09 in 10.0 mi SSW 4.6 mph - N/A   Clear
2:15 AM 73.4 °F - 60.8 °F 65% 30.09 in 10.0 mi SSW 4.6 mph - N/A   Scattered Clouds
2:35 AM 73.4 °F - 60.8 °F 65% 30.09 in 10.0 mi SSW 4.6 mph - N/A   Mostly Cloudy
2:55 AM 73.4 °F - 60.8 °F 65% 30.08 in 10.0 mi SSW 4.6 mph - N/A   Scattered Clouds
3:15 AM 73.4 °F - 60.8 °F 65% 30.08 in 10.0 mi SW 3.5 mph - N/A   Scattered Clouds
3:35 AM 73.4 °F - 60.8 °F 65% 30.08 in 10.0 mi SSW 4.6 mph - N/A   Scattered Clouds
3:55 AM 73.4 °F - 60.8 °F 65% 30.08 in 10.0 mi SSW 5.8 mph - N/A   Mostly Cloudy
4:15 AM 73.4 °F - 60.8 °F 65% 30.08 in 10.0 mi SW 4.6 mph - N/A   Overcast
4:35 AM 73.4 °F - 60.8 °F 65% 30.08 in 10.0 mi SW 4.6 mph - N/A   Overcast
4:55 AM 73.4 °F - 59.0 °F 61% 30.07 in 10.0 mi SW 4.6 mph - N/A   Overcast
5:15 AM 73.4 °F - 59.0 °F 61% 30.07 in 10.0 mi SSW 4.6 mph - N/A   Overcast
5:35 AM 73.4 °F - 59.0 °F 61% 30.07 in 10.0 mi SSW 4.6 mph - N/A   Overcast
5:55 AM 71.6 °F - 59.0 °F 64% 30.07 in 10.0 mi SSW 4.6 mph - N/A   Mostly Cloudy
6:15 AM 71.6 °F - 59.0 °F 64% 30.07 in 10.0 mi SSW 3.5 mph - N/A   Overcast
6:35 AM 71.6 °F - 59.0 °F 64% 30.07 in 10.0 mi SSW 3.5 mph - N/A   Mostly Cloudy
6:55 AM 71.6 °F - 59.0 °F 64% 30.07 in 10.0 mi SSW 3.5 mph - N/A   Scattered Clouds
7:15 AM 71.6 °F - 59.0 °F 64% 30.07 in 10.0 mi SSW 3.5 mph - N/A   Scattered Clouds
7:35 AM 69.8 °F - 59.0 °F 68% 30.07 in 10.0 mi Calm Calm - N/A   Clear
7:55 AM 69.8 °F - 59.0 °F 68% 30.07 in 10.0 mi SSW 4.6 mph - N/A   Scattered Clouds
8:15 AM 71.6 °F - 59.0 °F 64% 30.07 in 10.0 mi SSW 4.6 mph - N/A   Mostly Cloudy
8:35 AM 71.6 °F - 59.0 °F 64% 30.07 in 10.0 mi SSW 5.8 mph - N/A   Mostly Cloudy
8:55 AM 71.6 °F - 59.0 °F 64% 30.06 in 10.0 mi SSW 6.9 mph - N/A   Scattered Clouds
9:15 AM 73.4 °F - 59.0 °F 61% 30.06 in 10.0 mi SSW 5.8 mph - N/A   Clear
9:35 AM 73.4 °F - 59.0 °F 61% 30.06 in 10.0 mi SSW 8.1 mph - N/A   Clear
9:55 AM 75.2 °F - 60.8 °F 61% 30.06 in 10.0 mi SSW 8.1 mph - N/A   Clear
10:15 AM 77.0 °F - 60.8 °F 57% 30.06 in 10.0 mi SSW 9.2 mph 23.0 mph N/A   Clear
10:35 AM 77.0 °F - 60.8 °F 57% 30.05 in 10.0 mi SSW 11.5 mph 20.7 mph N/A   Clear
10:55 AM 78.8 °F - 60.8 °F 54% 30.05 in 10.0 mi SW 11.5 mph 17.3 mph N/A   Clear
11:35 AM 78.8 °F - 60.8 °F 54% 30.04 in 10.0 mi SSW 10.4 mph 17.3 mph N/A   Clear
11:55 AM 80.6 °F 81.5 °F 60.8 °F 51% 30.03 in 10.0 mi SSW 10.4 mph 17.3 mph N/A   Clear
12:15 PM 82.4 °F 82.9 °F 60.8 °F 48% 30.02 in 10.0 mi SW 13.8 mph 20.7 mph N/A   Clear
12:35 PM 82.4 °F 82.9 °F 60.8 °F 48% 30.01 in 10.0 mi SW 11.5 mph 23.0 mph N/A   Clear
12:55 PM 82.4 °F 82.9 °F 60.8 °F 48% 30.01 in 10.0 mi SW 17.3 mph 26.5 mph N/A   Clear
1:15 PM 82.4 °F 82.9 °F 60.8 °F 48% 30.00 in 10.0 mi SSW 12.7 mph 24.2 mph N/A   Clear
1:35 PM 82.4 °F 82.9 °F 60.8 °F 48% 30.00 in 10.0 mi SSW 12.7 mph 19.6 mph N/A   Clear
1:55 PM 82.4 °F 82.9 °F 60.8 °F 48% 29.99 in 10.0 mi SSW 12.7 mph 25.3 mph N/A   Clear
2:15 PM 82.4 °F 82.5 °F 59.0 °F 45% 29.97 in 10.0 mi SW 12.7 mph 23.0 mph N/A   Clear
2:35 PM 84.2 °F 83.8 °F 59.0 °F 42% 29.97 in 10.0 mi SW 12.7 mph 24.2 mph N/A   Clear
2:55 PM 84.2 °F 83.8 °F 59.0 °F 42% 29.97 in 10.0 mi SW 13.8 mph 23.0 mph N/A   Clear
3:15 PM 84.2 °F 83.8 °F 59.0 °F 42% 29.96 in 10.0 mi SW 13.8 mph 24.2 mph N/A   Clear
3:35 PM 84.2 °F 83.8 °F 59.0 °F 42% 29.96 in 10.0 mi SW 12.7 mph 23.0 mph N/A   Scattered Clouds
3:55 PM 82.4 °F 82.5 °F 59.0 °F 45% 29.95 in 10.0 mi SW 11.5 mph 21.9 mph N/A   Scattered Clouds
4:15 PM 84.2 °F 84.4 °F 60.8 °F 45% 29.95 in 10.0 mi SW 11.5 mph 20.7 mph N/A   Scattered Clouds
4:35 PM 82.4 °F 82.9 °F 60.8 °F 48% 29.93 in 10.0 mi SW 6.9 mph 16.1 mph N/A   Clear
4:55 PM 82.4 °F 82.9 °F 60.8 °F 48% 29.93 in 10.0 mi SW 9.2 mph 18.4 mph N/A   Clear
5:15 PM 80.6 °F 81.5 °F 60.8 °F 51% 29.92 in 10.0 mi SW 9.2 mph 19.6 mph N/A   Scattered Clouds
5:35 PM 80.6 °F 81.5 °F 60.8 °F 51% 29.92 in 10.0 mi SSW 9.2 mph - N/A   Scattered Clouds
5:55 PM 80.6 °F 81.5 °F 60.8 °F 51% 29.92 in 10.0 mi SSW 9.2 mph 17.3 mph N/A   Clear
6:15 PM 80.6 °F 81.5 °F 60.8 °F 51% 29.91 in 10.0 mi SSW 10.4 mph 19.6 mph N/A   Clear
6:35 PM 80.6 °F 81.5 °F 60.8 °F 51% 29.91 in 10.0 mi SSW 9.2 mph 17.3 mph N/A   Clear
6:55 PM 80.6 °F 81.5 °F 60.8 °F 51% 29.91 in 10.0 mi SSW 9.2 mph 18.4 mph N/A   Scattered Clouds
7:15 PM 78.8 °F - 60.8 °F 54% 29.91 in 10.0 mi SSW 8.1 mph - N/A   Scattered Clouds
7:35 PM 78.8 °F - 60.8 °F 54% 29.90 in 10.0 mi SSW 8.1 mph - N/A   Scattered Clouds
7:55 PM 78.8 °F - 60.8 °F 54% 29.90 in 10.0 mi SSW 6.9 mph - N/A   Scattered Clouds
8:15 PM 78.8 °F - 60.8 °F 54% 29.90 in 10.0 mi SSW 5.8 mph - N/A   Scattered Clouds
8:35 PM 78.8 °F - 60.8 °F 54% 29.90 in 10.0 mi SSW 5.8 mph - N/A Rain Light Rain
8:55 PM 78.8 °F - 60.8 °F 54% 29.90 in 10.0 mi SSW 6.9 mph - N/A   Light Drizzle
9:15 PM 77.0 °F - 60.8 °F 57% 29.89 in 10.0 mi SSW 5.8 mph - N/A Rain Light Rain
9:35 PM 77.0 °F - 60.8 °F 57% 29.88 in 10.0 mi SSW 8.1 mph - N/A   Scattered Clouds
9:55 PM 77.0 °F - 60.8 °F 57% 29.88 in 10.0 mi SSW 9.2 mph - N/A Rain Light Rain
10:15 PM 77.0 °F - 60.8 °F 57% 29.88 in 10.0 mi SSW 10.4 mph 19.6 mph N/A Rain Light Rain
10:35 PM 77.0 °F - 60.8 °F 57% 29.88 in 10.0 mi SSW 10.4 mph 18.4 mph N/A Rain Light Rain
10:55 PM 77.0 °F - 60.8 °F 57% 29.88 in 10.0 mi SSW 11.5 mph 19.6 mph N/A Rain Light Rain
11:15 PM 77.0 °F - 60.8 °F 57% 29.88 in 10.0 mi SW 12.7 mph 25.3 mph N/A   Scattered Clouds
11:35 PM 77.0 °F - 62.6 °F 61% 29.88 in 10.0 mi SW 15.0 mph 27.6 mph N/A   Mostly Cloudy
11:55 PM 73.4 °F - 64.4 °F 73% 29.89 in 10.0 mi SW 10.4 mph 25.3 mph N/A   Light Drizzle